Theta_e
320 318 319 320 321 322 325 327 333 330 326 330 329 329 327 322 319 320 320 318 320 318 314 315 314 316 318 320 323 320 318 327 330 318 316 307 299 303 302 302 305 305 305 306 307 307 305 305 303 302 302 302 303 304 305 306 306 306 306 307 306 306 306 306 306 305 305 305 305 304 304 305 305 304 304 304 305 305 305 306 306 306 307 307 307 308 308 307 307 308 307 308 308 308 309 308 306
318 318 319 320 321 323 327 328 335 330 327 331 327 330 325 318 320 325 327 325 321 313 310 313 312 313 314 314 314 316 316 315 314 310 305 299 299 303 302 303 304 303 304 304 305 302 300 300 300 302 302 302 304 305 305 305 305 305 306 306 306 306 306 306 305 305 305 305 304 304 304 304 304 303 303 304 304 304 304 305 305 305 306 306 307 307 307 307 307 307 307 307 307 307 307 306 305
318 318 318 320 319 322 327 327 334 330 327 330 330 329 320 322 329 326 325 321 313 308 310 311 312 312 311 315 311 314 318 308 303 302 298 297 301 303 302 303 303 303 303 304 303 298 295 298 301 302 302 303 305 304 304 305 305 305 305 305 305 305 305 305 305 305 305 305 305 304 304 304 303 303 303 303 303 303 304 304 304 304 305 305 306 306 306 306 306 306 306 306 306 307 307 305 305
317 318 317 320 320 325 333 327 332 331 327 329 329 327 323 329 330 321 317 314 309 308 311 310 312 307 307 317 311 310 314 308 302 301 301 299 303 304 302 303 303 303 303 302 298 294 294 299 302 302 303 304 304 304 304 304 304 304 304 305 305 305 305 305 305 305 305 305 305 304 304 303 303 303 303 303 302 302 303 303 303 303 304 305 305 305 305 305 305 305 305 306 306 306 306 304 304
317 316 315 320 323 326 329 321 323 327 328 329 328 325 326 330 326 320 313 311 310 309 311 310 309 304 304 312 310 310 310 308 302 299 302 302 303 303 302 303 303 303 302 297 294 293 296 301 302 303 304 303 303 304 304 304 304 304 305 304 304 304 305 305 305 305 305 305 304 304 304 303 303 303 303 303 302 302 302 302 302 303 303 304 304 304 304 304 304 304 304 305 305 305 305 304 303
316 315 315 316 316 318 324 321 322 325 327 326 326 325 323 323 321 318 311 309 310 310 310 308 308 305 306 307 307 308 306 306 303 300 301 303 303 302 302 303 302 302 298 293 293 295 298 303 304 304 303 301 302 303 304 304 304 304 304 304 304 304 304 304 304 304 304 304 304 304 303 303 302 302 302 302 302 302 302 302 302 302 302 303 303 304 304 304 303 303 303 304 304 304 304 304 302
315 316 319 319 316 318 325 326 326 327 323 319 322 326 322 319 316 315 312 309 311 309 308 310 309 306 306 305 304 303 302 303 301 302 302 303 303 301 302 302 301 299 294 293 294 295 299 304 304 303 301 300 302 303 303 303 303 303 303 304 304 304 303 303 303 303 302 303 302 303 303 303 302 302 302 302 302 301 301 301 302 301 302 302 303 303 303 303 303 303 302 303 303 304 303 303 302
315 318 320 326 324 320 324 321 322 323 318 314 316 320 320 320 315 316 316 312 311 309 309 313 309 307 306 302 306 303 299 302 300 302 301 302 303 300 301 300 299 295 293 293 294 296 299 304 304 302 302 302 303 303 303 302 302 301 300 300 301 302 302 302 301 301 301 301 301 300 301 301 301 302 302 301 301 301 301 301 301 301 302 302 302 302 302 302 302 302 302 302 303 303 302 302 301
313 315 318 325 323 321 326 320 318 318 316 316 315 317 319 317 314 316 318 313 311 311 311 312 309 308 307 303 308 303 299 302 300 301 300 302 302 300 300 298 297 294 293 293 294 295 298 304 305 304 304 304 304 303 303 301 299 297 295 295 295 297 298 300 299 299 299 299 299 299 299 299 300 300 300 300 300 300 300 301 301 301 302 302 301 302 302 302 301 301 301 301 302 302 302 301 300
314 315 318 322 321 322 325 321 320 319 316 316 315 318 323 317 312 315 318 314 311 313 310 306 306 306 306 306 309 302 299 302 299 301 300 301 302 300 299 298 297 293 293 293 294 295 297 304 305 306 305 304 304 303 303 300 297 294 293 293 293 293 294 296 296 295 296 296 296 296 296 297 297 298 299 299 298 298 298 299 300 301 301 301 301 301 301 301 301 301 301 301 301 301 301 300 300
321 319 320 319 319 320 323 323 322 321 317 314 315 317 319 315 312 315 316 313 310 311 308 305 308 309 306 307 309 301 298 300 300 301 300 301 301 300 299 298 297 294 293 294 293 295 297 303 305 306 305 305 304 303 303 300 297 294 293 293 292 293 292 294 293 293 293 293 294 293 293 293 294 295 296 297 296 295 296 297 299 300 300 300 300 300 300 300 300 300 301 300 300 300 300 299 299
320 323 328 325 320 319 319 322 320 321 321 316 321 319 312 310 313 319 317 315 312 311 310 307 309 309 307 311 308 299 297 300 300 300 300 300 300 300 300 299 298 294 293 294 293 294 297 301 305 306 305 305 305 303 303 300 297 295 294 294 294 293 292 292 292 292 292 292 292 292 291 291 291 292 293 294 294 292 292 294 297 299 299 300 299 299 299 299 299 299 299 299 299 299 299 299 298
323 324 328 322 318 319 316 319 320 320 323 320 320 314 308 310 314 320 318 315 313 313 312 307 305 304 307 310 306 299 298 299 299 299 299 299 299 299 299 298 298 295 293 293 293 294 296 299 302 305 305 305 305 303 303 302 298 295 294 295 295 293 292 292 292 292 292 292 292 292 292 291 291 291 291 291 291 291 290 291 295 297 298 298 298 297 297 297 298 298 298 298 298 298 298 298 296
325 326 326 318 313 319 317 316 319 317 318 319 315 309 308 312 315 316 316 316 315 313 308 302 302 305 305 306 308 305 299 298 299 299 298 299 299 298 298 298 298 296 293 293 293 293 294 297 300 304 305 305 305 303 303 301 299 297 295 294 294 293 292 292 292 292 292 292 292 292 292 292 291 291 291 291 291 290 290 290 292 295 297 296 296 296 295 296 296 297 297 297 297 297 297 296 295
318 326 326 320 313 316 317 313 316 317 316 316 312 309 311 311 311 311 314 318 315 305 301 300 301 304 306 305 308 304 297 297 299 298 298 298 298 298 298 297 297 296 294 293 293 292 293 295 298 302 304 304 304 303 300 298 297 295 293 293 293 292 292 292 292 292 292 292 292 292 292 292 292 291 291 291 291 290 290 290 290 292 295 295 294 294 293 294 295 295 295 295 296 295 293 292 290
316 325 322 317 315 314 316 313 313 316 316 314 307 307 315 313 308 310 308 309 309 301 300 304 301 302 305 303 301 297 295 297 298 298 297 297 297 297 297 297 296 296 294 293 293 292 292 293 296 299 302 302 302 300 297 295 294 293 292 292 292 292 292 292 292 292 292 292 292 292 292 292 292 292 291 291 291 290 290 290 289 290 292 293 292 291 290 291 293 293 292 292 292 289 287 286 286
313 322 320 315 316 314 316 314 312 316 316 311 304 307 320 317 307 304 300 302 307 303 302 305 300 299 301 299 296 294 295 296 296 297 295 295 295 295 295 296 295 295 295 293 293 293 292 292 293 295 297 298 298 297 295 294 293 292 292 292 292 292 292 292 292 292 292 292 292 292 292 292 292 292 292 291 291 291 290 290 290 289 290 290 290 289 288 289 290 290 289 288 288 286 285 285 285
313 318 315 313 316 316 318 316 313 312 312 311 307 309 316 317 309 302 300 303 305 303 303 303 301 298 295 294 294 294 295 295 295 295 294 293 293 293 293 294 294 295 294 293 293 293 292 292 292 292 293 294 294 294 293 293 292 292 292 292 292 292 292 292 292 292 292 292 292 292 292 292 291 291 291 291 291 291 290 290 290 289 289 289 289 288 288 288 288 288 287 287 286 286 286 286 285
320 318 311 316 320 316 314 313 311 309 308 310 309 307 311 313 307 302 304 307 304 304 306 304 303 301 295 293 293 294 294 294 294 294 293 292 292 292 292 292 293 294 293 293 293 293 293 292 292 292 292 292 292 292 292 292 292 292 292 292 292 292 292 292 292 292 292 292 292 292 292 291 291 291 291 291 291 291 291 290 290 289 289 289 288 288 288 287 287 287 287 287 286 286 286 286 286
316 312 311 321 321 314 310 309 308 306 304 307 308 305 308 311 304 302 306 308 305 306 309 305 305 306 301 294 291 292 293 293 293 293 293 292 292 292 292 292 292 293 293 293 293 293 293 292 292 292 292 292 292 292 292 292 292 292 292 292 292 292 292 292 292 292 292 292 292 292 292 291 291 291 291 291 291 291 291 290 290 289 289 289 288 288 288 287 287 287 287 286 286 286 286 286 286
307 308 315 317 311 310 308 305 305 303 302 307 309 305 308 307 302 303 305 306 308 309 308 307 307 307 304 296 290 291 292 291 292 292 292 292 292 292 292 292 292 293 292 292 292 292 292 292 292 292 292 292 292 292 292 292 292 292 292 292 292 292 292 292 292 292 292 292 292 292 291 291 291 291 291 291 291 291 291 290 290 289 289 289 288 288 288 287 287 287 286 286 286 286 286 286 286
307 310 313 310 306 306 305 303 302 301 302 307 308 305 305 302 300 303 304 306 311 311 307 307 307 305 303 297 291 290 291 291 291 292 292 292 291 291 291 291 292 292 292 292 292 292 292 292 292 292 292 292 292 292 292 292 292 292 292 292 292 292 292 292 292 292 292 292 292 291 291 291 291 291 291 291 291 291 290 290 290 289 289 289 288 288 287 287 287 286 286 286 286 286 285 285 285
307 310 306 305 305 304 303 302 301 301 304 308 308 304 301 301 302 302 303 305 309 308 304 307 304 298 296 294 291 291 292 291 291 292 292 292 291 291 291 291 291 291 291 292 292 292 292 292 293 292 292 292 292 292 292 292 292 292 292 292 292 292 292 292 292 292 292 292 292 291 291 291 291 291 291 291 291 290 290 290 289 289 289 288 288 288 287 287 287 286 286 286 286 285 285 285 285
305 310 307 303 301 302 302 301 301 302 303 304 303 300 300 304 302 299 301 303 304 301 296 296 296 291 292 293 292 292 292 291 291 292 291 291 291 291 291 291 291 291 291 292 292 292 292 293 293 293 293 293 292 292 292 292 292 292 292 292 292 292 292 292 292 292 292 292 292 292 291 291 291 291 291 291 290 290 290 289 289 289 288 288 288 287 287 287 286 286 286 286 285 285 285 285 285
306 308 307 302 300 302 301 299 300 301 301 300 299 300 302 303 299 298 301 299 298 297 293 293 292 292 294 295 294 291 291 291 291 291 291 292 292 291 291 291 291 291 291 292 292 293 293 293 293 293 293 293 293 293 292 292 292 292 292 292 292 292 292 292 292 292 292 292 292 292 291 291 291 291 291 290 290 289 289 289 288 288 288 288 287 287 287 286 286 286 286 285 285 285 285 285 285
308 306 306 302 303 305 301 299 300 300 300 298 299 302 302 298 297 301 301 297 296 296 296 295 295 296 296 295 292 290 290 290 290 291 291 292 292 291 291 291 291 292 292 293 293 294 293 294 293 293 293 293 293 292 292 292 292 292 292 292 292 292 292 292 292 292 292 292 291 291 291 291 290 290 290 289 289 289 289 288 288 288 288 287 287 287 286 286 286 286 285 285 285 285 285 284 284
306 306 306 303 305 306 300 299 299 299 300 298 300 302 301 297 299 304 301 295 296 299 300 297 296 296 294 293 291 290 290 290 291 291 291 291 291 291 291 291 292 292 293 293 293 293 293 293 293 292 292 292 292 292 292 292 292 292 292 292 292 292 292 291 291 291 291 291 291 290 290 290 290 289 289 289 289 288 288 288 288 288 288 287 287 286 286 286 286 285 285 285 285 285 284 284 284
303 304 306 304 307 306 301 300 299 300 300 299 300 301 301 299 301 303 298 295 297 301 301 297 298 296 292 293 292 289 289 290 291 291 291 291 291 291 291 292 292 292 293 293 292 292 292 292 292 292 292 292 292 292 291 291 291 291 291 291 291 291 291 291 290 290 290 290 290 289 289 289 289 289 289 289 288 288 288 287 287 287 287 287 287 286 286 286 285 285 285 285 285 284 284 284 284
302 304 307 310 314 310 303 301 299 300 301 298 299 304 307 303 300 298 294 295 298 301 300 297 297 295 293 293 291 289 288 289 291 290 291 291 291 292 291 292 292 292 292 292 292 292 292 292 292 292 291 291 291 291 291 291 291 290 290 290 290 290 290 290 290 290 289 289 289 289 289 288 288 288 288 288 288 288 287 287 287 287 287 286 286 286 286 286 285 285 285 285 285 284 284 284 284
304 304 309 313 315 314 305 300 299 299 301 298 300 309 315 307 298 295 293 294 299 301 299 296 295 294 292 290 290 289 287 288 289 289 290 290 291 292 291 292 292 292 292 292 292 292 292 291 291 291 291 291 291 291 291 291 291 290 290 290 290 290 290 290 290 289 289 289 289 289 288 288 288 288 288 288 288 288 288 288 288 287 287 287 287 286 286 286 285 285 285 285 285 284 284 284 284
308 306 313 313 311 318 310 300 301 300 300 299 302 309 314 306 297 295 293 293 298 301 299 296 294 291 289 288 288 288 287 287 288 288 290 290 291 291 291 291 291 291 291 291 291 290 291 291 291 291 291 291 290 291 290 290 290 290 290 290 290 290 289 289 289 289 289 289 288 288 288 288 288 287 287 287 287 287 287 287 288 288 287 287 287 287 286 286 286 286 285 285 285 284 284 284 284
313 308 318 316 308 319 314 301 301 302 300 300 303 309 311 305 298 295 293 292 296 300 297 294 292 289 289 288 288 288 288 288 288 289 289 290 290 290 290 290 290 290 290 290 290 290 290 290 290 290 290 290 290 290 290 290 290 290 290 290 289 289 289 289 289 288 288 288 288 288 288 287 287 287 287 287 287 287 286 286 287 287 287 286 286 286 286 286 286 286 286 285 285 285 284 284 284
317 309 314 316 309 315 312 302 300 301 300 301 303 307 309 304 297 294 293 291 296 300 296 292 290 289 289 289 289 289 289 289 289 288 288 289 289 289 289 289 289 289 289 289 289 289 289 289 289 289 289 289 289 289 289 289 289 289 289 289 289 289 289 289 288 288 288 288 288 287 287 287 287 287 287 287 287 286 286 286 286 286 286 285 285 286 286 286 286 286 286 286 285 285 285 284 284
319 312 312 312 309 309 310 307 302 299 301 302 303 304 306 303 296 293 293 291 295 299 295 290 289 289 289 289 290 290 289 289 288 288 288 288 288 288 288 288 288 288 288 288 288 288 288 288 288 288 288 288 288 288 288 289 289 289 289 289 289 289 289 288 288 288 288 287 287 287 286 286 286 286 286 286 286 286 286 286 286 286 285 285 285 285 285 285 285 285 285 285 285 284 284 284 284
310 310 310 310 309 306 309 310 304 301 302 302 303 303 304 301 295 293 293 290 292 293 291 289 289 289 290 290 289 289 289 288 288 288 288 288 287 287 287 287 287 287 287 287 287 287 287 286 287 286 286 286 287 287 287 288 288 288 288 288 288 287 287 287 287 287 287 286 286 285 285 285 285 285 285 285 285 285 286 286 286 285 285 285 285 285 285 285 284 284 283 284 284 283 283 284 284
305 307 307 307 308 306 307 308 303 301 302 305 305 304 304 299 294 292 292 291 291 290 289 290 290 290 290 290 290 289 288 288 288 287 287 287 286 285 285 285 285 285 285 285 285 285 285 285 285 284 283 284 285 285 285 285 285 284 283 284 284 283 283 284 284 284 284 284 283 283 283 283 283 283 284 284 284 284 284 284 285 285 284 284 284 284 284 284 283 283 283 283 282 282 283 283 283
305 306 306 306 305 305 306 305 303 300 303 308 305 304 303 296 293 292 291 292 291 291 291 290 290 290 290 290 290 289 288 288 287 286 286 285 285 284 284 284 284 284 283 283 283 282 282 283 283 282 281 283 283 282 281 281 281 281 280 280 280 280 281 281 281 281 281 281 281 281 281 282 282 282 282 282 282 282 282 283 283 283 283 282 282 282 282 282 282 281 281 281 281 281 281 282 282
305 305 305 306 305 305 305 302 303 302 304 308 304 303 301 294 293 292 291 292 292 291 291 291 290 290 290 290 289 288 288 287 287 286 285 284 284 283 282 282 282 281 281 281 281 281 282 282 282 281 281 282 281 280 279 279 279 279 279 279 279 279 279 279 279 279 279 279 279 280 280 280 280 280 280 280 280 280 280 280 281 281 281 281 281 281 282 281 281 281 280 280 280 280 280 281 281
305 306 305 308 307 306 306 303 303 303 303 308 305 303 300 293 293 292 291 291 290 290 291 290 290 290 290 289 289 288 287 286 286 285 284 284 283 282 281 280 280 279 279 280 280 281 281 281 280 280 280 279 279 278 278 278 278 278 278 278 278 278 278 278 278 278 278 278 278 278 279 279 279 279 279 279 279 278 278 279 279 280 280 280 280 281 281 281 280 280 279 279 279 279 280 280 280
306 305 305 309 307 305 308 305 304 303 302 305 305 302 298 294 294 293 292 291 290 290 290 290 290 289 289 289 288 288 286 286 285 284 284 283 282 282 281 280 279 279 279 279 279 279 279 279 278 278 278 278 277 276 276 277 277 277 277 277 277 277 277 277 277 277 277 277 277 278 277 277 277 277 277 277 277 277 278 278 278 279 279 279 279 279 279 279 279 278 278 278 278 279 279 279 279
310 307 305 308 305 302 305 305 303 303 301 300 302 304 299 294 295 294 292 292 290 290 290 290 290 289 289 288 287 287 286 285 284 283 283 283 282 281 281 280 279 278 277 277 277 278 278 278 277 277 277 277 276 275 275 276 276 276 276 277 277 277 276 276 276 275 275 276 276 275 275 275 274 275 275 276 276 277 277 277 277 277 277 277 277 277 277 277 277 276 277 277 277 278 278 279 279
310 308 303 303 304 303 304 303 303 305 304 299 300 307 303 294 294 295 293 292 291 290 290 290 289 289 288 288 287 286 285 285 284 283 283 282 282 281 280 279 279 278 277 276 277 277 278 277 277 277 277 276 275 274 274 275 275 275 275 275 276 275 275 274 274 273 273 275 275 273 272 273 273 274 275 275 275 276 275 275 275 275 275 275 275 274 274 274 275 275 275 275 275 276 277 278 278
308 305 301 302 303 303 304 303 303 307 305 299 298 304 305 297 294 294 293 292 291 291 290 290 289 288 287 287 286 285 285 284 283 283 283 282 281 281 280 279 279 278 277 277 277 277 277 277 277 277 276 276 275 274 274 274 275 275 275 274 274 274 273 273 272 272 272 272 273 272 271 272 273 274 274 274 274 274 274 273 273 273 273 273 273 272 272 272 273 273 273 273 273 274 275 276 277
306 302 301 303 301 301 302 301 302 305 302 300 299 300 304 301 296 294 294 293 292 291 291 290 288 288 287 286 286 285 284 284 283 283 283 282 281 281 280 279 278 278 277 277 277 277 277 277 276 276 276 275 274 274 273 274 274 275 274 273 273 273 272 272 271 271 270 271 272 271 271 272 272 273 273 273 272 273 272 272 271 271 271 271 270 270 270 270 270 271 271 271 271 272 272 274 275
305 300 299 300 299 300 301 301 304 302 300 305 302 298 303 305 296 294 295 294 294 292 291 290 288 287 287 286 285 284 284 284 283 283 283 282 282 281 280 279 278 277 277 277 277 276 276 276 276 276 276 275 274 273 273 273 274 274 273 272 272 272 271 271 270 270 270 270 271 271 271 271 272 272 272 272 271 271 271 271 270 269 269 269 269 269 269 269 269 269 270 270 270 270 271 272 273
301 297 298 298 298 300 300 302 305 303 303 308 304 298 303 305 296 294 296 295 294 292 290 289 288 287 287 286 285 285 284 284 284 283 283 282 282 281 280 279 278 277 277 276 276 275 275 276 275 275 275 275 274 273 272 272 273 273 273 271 271 271 270 269 269 269 269 270 270 271 271 271 271 271 270 270 270 270 270 269 268 268 268 268 268 268 268 268 268 269 269 269 269 269 270 270 271
299 298 300 299 298 298 300 302 302 305 310 307 300 298 301 304 299 294 295 294 293 292 290 289 288 287 287 286 285 285 284 284 284 283 283 282 282 281 281 280 278 277 276 276 275 275 275 275 275 275 274 274 274 273 272 271 272 273 272 271 270 270 269 269 269 269 269 269 270 270 270 271 270 270 269 269 269 268 268 268 267 267 267 267 267 267 267 267 267 268 268 268 268 269 269 269 270
300 301 301 302 302 300 302 305 304 306 310 303 299 299 301 304 301 294 292 291 290 292 291 289 289 288 287 286 286 285 284 284 284 284 283 283 282 282 281 279 278 277 276 275 274 274 274 274 274 274 274 274 273 273 271 271 272 272 271 270 270 269 268 268 268 268 268 269 269 270 270 270 269 269 269 268 268 268 267 267 267 266 266 266 266 266 266 266 266 266 267 267 267 267 268 268 269
301 303 303 306 309 306 306 309 307 307 306 300 299 300 300 301 297 291 290 289 289 291 290 289 289 288 287 286 286 285 284 284 284 284 284 283 283 281 280 279 278 277 275 274 274 273 273 273 273 273 273 273 272 272 270 270 271 271 270 270 269 269 268 268 268 268 268 268 269 269 269 269 268 268 268 267 267 267 266 266 266 266 266 266 266 265 265 265 265 265 265 265 265 266 266 267 267
301 302 304 307 308 307 309 308 304 305 305 299 297 298 301 301 294 289 289 288 288 289 289 289 288 288 287 286 286 285 284 284 284 284 284 283 282 281 280 278 277 276 275 274 273 273 273 273 273 273 273 272 271 271 269 269 270 270 270 270 269 268 267 267 267 267 268 268 268 269 268 268 268 267 267 266 266 265 265 265 265 265 265 265 264 264 264 264 264 264 264 264 265 265 266 266 266
300 299 300 305 305 303 306 307 304 305 304 299 297 298 303 302 294 289 288 288 287 288 288 288 288 288 287 287 286 286 285 284 284 284 283 283 282 281 279 278 276 275 274 273 273 272 272 272 272 272 272 271 271 269 269 269 270 270 270 269 268 267 267 267 267 267 267 268 268 268 267 267 267 266 266 265 265 265 264 264 264 264 264 264 263 263 263 263 263 263 263 264 264 264 265 265 265
298 298 300 304 303 300 303 304 301 300 301 301 301 300 297 294 291 289 289 288 287 287 287 287 288 288 288 288 287 286 286 285 284 284 283 283 281 280 278 277 276 275 274 273 272 272 271 271 272 272 271 270 269 268 268 269 269 269 269 268 267 266 266 266 266 266 267 267 268 267 267 266 266 265 265 264 264 264 264 263 263 263 263 263 263 263 262 262 262 262 263 263 263 263 264 264 265
300 300 301 299 296 298 302 302 297 297 301 302 301 300 295 292 291 289 289 289 288 287 287 287 287 287 288 289 288 287 287 285 284 284 283 282 281 279 277 276 275 274 273 272 272 271 271 271 271 271 270 269 268 268 268 269 269 268 268 267 266 266 266 266 266 266 266 267 267 266 266 265 265 264 264 263 263 263 263 263 262 262 262 262 262 262 262 262 262 262 262 262 262 263 263 263 264
301 303 300 296 295 299 301 302 302 303 304 301 299 299 299 299 295 290 289 290 289 288 287 286 286 287 287 287 288 288 287 286 285 284 283 282 280 278 276 275 274 273 273 272 271 271 270 270 271 270 269 268 268 268 268 269 268 267 267 266 266 265 265 265 265 265 266 266 266 266 265 265 264 263 263 263 262 262 262 262 262 261 261 261 261 261 261 261 261 261 261 262 262 262 263 263 263
299 300 297 296 300 303 301 301 303 303 301 301 299 298 297 298 296 292 291 292 290 288 287 286 286 286 286 286 287 287 287 287 286 285 283 281 279 276 275 275 274 273 272 272 271 270 270 270 270 269 268 267 267 267 268 268 267 266 266 266 265 265 265 265 265 265 265 266 266 265 265 264 263 263 262 262 262 262 261 261 261 261 261 261 261 260 261 260 261 261 261 261 261 262 262 262 262
299 299 298 300 301 301 299 298 300 301 301 301 301 300 298 295 292 290 290 291 290 289 288 287 286 286 286 286 286 286 286 287 287 286 283 279 277 276 275 274 274 273 272 271 270 270 269 270 269 268 267 267 267 267 267 267 266 265 265 265 265 264 264 265 264 264 265 265 265 265 264 263 263 262 262 262 261 261 261 261 261 261 260 260 260 260 260 260 260 260 261 261 261 261 261 261 261
300 301 300 301 301 299 298 296 296 299 301 301 300 301 298 291 289 289 289 290 290 288 288 287 287 286 286 286 286 286 285 285 286 284 280 278 277 276 275 274 273 272 271 270 270 269 269 269 268 267 267 266 266 267 267 266 265 265 265 264 264 264 264 264 264 264 264 264 264 263 263 262 262 262 261 261 261 261 261 260 260 260 260 260 260 260 260 260 260 260 260 260 260 260 260 261 261
298 299 297 298 299 300 301 299 296 297 300 299 299 300 298 291 288 289 289 289 289 287 287 287 286 287 286 286 286 285 285 285 284 281 278 277 277 276 275 274 273 272 270 270 269 269 269 268 268 267 266 266 266 266 266 265 265 264 264 264 264 263 263 263 263 263 263 264 263 262 262 262 261 261 261 261 261 260 260 260 260 260 260 259 259 259 259 259 259 259 259 259 260 260 260 260 260
Wind_Speed
5 5 3 3 2 2 2 4 1 1 1 1 1 1 2 1 1 2 2 2 1 2 1 0 1 3 3 2 3 3 2 4 4 2 2 2 7 21 13 16 25 22 23 19 17 15 12 11 8 9 10 11 11 12 12 12 13 13 12 12 12 12 12 12 12 11 11 11 11 11 11 11 11 11 11 11 11 11 12 12 12 12 12 12 12 13 13 13 13 13 13 13 12 12 13 14 14
6 5 2 0 2 3 2 2 2 2 1 3 2 2 2 1 1 3 4 4 2 1 1 1 2 2 3 2 2 1 1 1 2 1 1 0 10 22 14 19 26 21 23 19 17 14 11 10 9 11 11 12 12 12 12 12 13 12 12 12 12 12 12 13 13 13 13 12 12 12 12 12 12 11 11 11 11 11 11 12 12 12 12 12 12 12 13 12 13 12 12 12 12 12 12 13 13
6 4 1 2 2 3 1 2 1 1 2 4 3 2 1 0 4 4 3 4 1 1 0 1 2 1 2 2 1 1 2 1 2 1 0 5 12 19 17 22 25 21 21 18 16 12 11 11 11 12 12 12 12 12 12 12 13 12 12 12 12 13 13 14 14 15 15 14 14 13 13 13 12 12 12 12 11 11 11 12 12 12 12 11 11 12 12 12 12 12 12 12 12 12 12 13 12
4 3 1 3 1 3 3 2 1 3 2 3 2 3 2 3 4 3 3 2 2 1 0 2 1 0 1 1 1 0 2 1 4 4 2 10 14 18 21 24 25 21 20 16 14 11 12 14 13 13 13 13 12 13 13 12 12 12 12 12 12 13 13 14 15 15 15 15 15 15 15 14 13 13 12 12 12 11 11 11 12 12 12 11 11 11 12 12 12 12 12 11 11 11 12 12 12
3 5 3 3 2 1 3 1 1 2 4 3 1 3 4 5 4 3 2 2 2 1 1 2 1 1 1 2 2 1 2 1 4 7 4 11 16 20 23 25 25 21 18 15 13 13 15 15 13 13 13 13 13 13 12 12 12 11 11 11 12 12 13 14 14 15 15 16 16 15 15 15 14 14 13 12 12 12 11 11 12 12 11 11 11 11 11 11 12 11 12 11 11 11 11 12 11
2 6 8 6 3 1 3 1 1 2 4 4 2 3 4 4 4 3 1 2 2 2 1 1 1 1 1 2 2 2 2 2 4 8 6 10 19 22 24 26 24 21 18 15 15 16 18 16 14 14 13 14 13 13 12 11 11 11 10 11 11 12 12 13 13 14 15 15 15 15 15 15 14 14 13 13 13 12 12 12 11 11 11 11 11 11 11 11 11 11 11 11 11 11 11 11 11
3 1 5 6 2 2 2 2 3 3 3 4 3 3 4 3 4 5 4 2 1 2 0 0 0 2 1 2 1 3 3 4 5 6 6 12 22 24 25 26 23 21 18 16 17 18 19 16 14 14 13 14 13 12 12 11 11 10 10 10 10 11 11 12 12 13 13 14 14 14 14 14 14 14 14 14 13 13 13 12 11 11 11 11 11 11 11 11 11 10 11 10 11 10 10 10 10
6 1 1 3 1 3 2 2 2 3 3 3 3 4 4 3 5 6 5 3 1 2 0 1 1 1 2 2 1 3 4 6 4 6 8 14 24 25 25 26 23 21 18 18 18 18 20 16 14 14 13 13 12 11 11 10 10 9 9 10 10 10 10 10 11 12 12 13 13 14 14 14 14 14 14 14 14 14 13 13 12 12 12 12 11 11 11 11 11 10 10 10 11 10 10 10 9
7 4 0 2 1 1 1 2 3 3 4 4 3 4 3 3 5 5 5 2 1 3 2 3 2 2 2 2 2 2 3 8 5 6 10 16 25 26 26 26 24 22 19 19 19 19 20 17 13 13 12 12 11 11 10 10 9 9 9 9 9 9 9 9 9 10 10 11 12 12 13 13 13 13 14 14 14 14 14 14 13 13 12 12 12 11 11 11 11 10 10 10 10 10 10 9 9
5 4 1 1 1 1 3 2 2 2 4 4 4 5 3 5 5 3 5 2 2 4 2 2 2 2 1 1 4 1 3 9 8 7 12 19 25 26 26 25 23 22 21 20 20 19 20 18 14 12 12 11 10 10 9 9 8 8 8 8 8 8 8 8 7 8 8 9 10 10 11 12 12 13 13 13 14 14 14 14 13 13 13 12 12 12 12 11 11 10 10 10 10 10 9 9 9
3 3 2 2 1 2 4 3 3 4 4 4 5 5 4 6 6 2 2 1 2 3 2 3 2 3 1 2 3 1 4 9 10 9 15 21 25 25 25 24 22 21 20 21 20 19 19 19 16 13 11 10 10 9 9 8 7 6 6 6 6 6 7 7 7 7 8 8 9 9 10 11 12 12 12 13 13 14 14 14 13 13 13 12 12 12 12 12 11 11 10 10 10 10 9 9 9
1 2 4 2 2 3 3 2 4 5 5 4 3 3 3 6 5 4 5 3 2 3 3 5 3 3 3 3 3 2 3 10 11 10 17 23 24 25 24 23 22 20 19 19 19 18 17 18 18 15 12 11 10 9 9 7 5 4 3 3 3 4 5 5 6 7 8 8 8 9 10 10 11 12 12 12 13 13 14 14 13 13 13 12 13 13 13 12 12 11 10 10 10 9 9 9 8
2 2 4 2 2 2 2 1 4 5 5 3 3 1 3 6 4 5 6 3 3 3 4 6 3 2 2 3 2 2 2 10 12 12 19 22 24 25 24 23 22 20 19 18 18 18 17 16 17 17 14 12 10 10 9 7 5 3 2 1 1 3 4 5 6 7 8 8 8 9 10 10 11 11 12 12 13 13 14 14 13 13 13 13 13 13 13 13 13 12 11 10 10 9 9 8 7
3 3 4 2 0 2 3 2 3 3 5 4 1 2 4 3 3 3 6 4 5 5 2 5 5 2 2 2 2 2 2 11 13 14 20 22 24 24 23 22 21 21 19 18 17 17 17 16 16 17 16 14 12 11 10 8 6 4 2 2 2 4 5 6 7 7 8 8 8 9 10 11 11 12 12 12 13 13 14 14 13 13 13 13 13 13 13 13 13 13 11 10 10 9 8 6 6
3 2 4 3 0 0 3 2 1 2 5 3 0 3 3 2 2 3 4 4 4 3 1 2 3 2 2 2 2 2 4 13 15 16 21 23 24 24 23 22 21 21 20 19 17 17 16 15 15 16 16 15 14 13 11 9 7 5 4 4 4 5 6 6 7 7 8 8 9 10 11 11 12 12 13 13 13 13 13 14 14 13 12 13 13 13 13 13 13 13 12 11 10 8 8 9 10
3 3 4 2 2 1 3 3 1 1 5 3 1 1 3 4 2 2 4 2 1 1 1 2 2 1 2 3 1 2 6 16 16 18 22 22 23 23 23 22 21 21 20 20 18 17 16 15 15 15 15 15 14 12 10 8 6 6 5 6 6 6 7 7 8 9 9 10 11 11 12 12 12 12 13 13 13 13 13 14 14 13 12 12 13 13 13 13 13 13 13 12 10 11 12 13 13
2 4 3 1 2 2 4 4 3 3 5 2 1 2 4 3 2 2 2 1 1 1 2 3 2 0 3 1 2 0 12 18 17 21 22 21 21 20 21 22 22 21 21 21 20 18 17 16 15 14 14 13 13 11 9 8 7 7 7 7 8 8 9 9 10 10 11 11 12 12 13 13 13 13 13 14 14 14 14 14 14 14 13 13 13 14 14 13 13 13 13 12 12 14 14 14 13
3 3 2 2 3 3 5 7 6 4 2 0 2 3 4 2 2 1 1 2 3 1 3 3 3 1 2 0 1 8 17 19 20 23 22 20 20 19 20 21 22 22 22 21 20 19 18 17 15 15 13 12 11 11 10 9 9 9 9 9 9 10 10 11 12 12 13 13 13 14 14 14 14 14 15 15 15 15 14 14 14 15 14 14 15 15 15 14 13 13 13 13 14 15 15 15 14
3 3 2 4 5 5 5 6 5 3 0 2 2 2 4 3 2 1 1 2 3 1 4 3 5 4 2 3 7 14 19 21 22 24 23 23 23 22 21 21 22 23 23 23 21 20 19 17 16 15 13 12 12 11 11 11 11 11 12 12 12 12 13 13 14 14 15 15 16 16 16 16 16 16 16 16 16 16 15 15 14 15 15 15 15 16 16 15 14 14 14 14 15 15 15 15 15
2 3 1 5 5 4 4 5 5 4 2 2 1 1 2 4 1 1 2 2 1 3 5 1 5 9 5 4 10 16 17 20 21 22 23 24 24 24 23 23 24 24 23 22 21 20 18 17 16 15 14 13 13 13 13 13 13 14 14 14 14 15 15 15 15 15 16 16 17 17 17 17 17 17 17 17 17 17 16 15 15 15 15 15 16 16 16 16 15 15 15 15 15 15 15 16 16
2 3 4 4 3 2 3 5 4 3 2 2 3 2 1 4 1 0 3 1 4 5 6 7 8 9 7 5 9 15 16 17 18 19 20 20 20 20 20 20 21 21 20 19 17 17 17 17 16 15 14 14 14 14 14 15 15 16 16 16 16 16 17 16 16 16 16 17 17 17 18 17 17 17 17 17 17 17 17 16 15 16 16 16 16 16 17 16 16 16 16 16 16 16 16 16 17
1 3 4 4 3 1 2 3 3 3 3 4 4 1 2 0 1 2 5 4 5 4 5 8 9 6 6 8 11 13 13 14 17 18 19 19 18 16 15 14 14 14 13 13 13 13 14 15 15 15 15 15 15 15 16 16 16 17 17 18 18 18 17 17 16 16 16 16 16 16 16 16 17 17 17 17 16 17 16 16 15 16 16 16 16 17 17 17 16 16 17 17 17 17 17 17 17
1 3 1 2 3 2 2 0 3 3 5 4 3 2 1 2 2 2 5 9 8 4 2 4 4 3 6 11 12 10 9 12 17 20 19 17 15 14 14 12 9 7 7 7 7 8 10 11 12 12 13 13 14 15 15 16 16 16 16 16 15 15 14 14 13 13 13 13 13 14 14 14 14 14 15 15 15 15 15 15 15 16 16 16 16 17 17 17 17 17 17 17 17 18 18 18 17
2 3 3 1 3 4 2 1 2 4 5 4 2 1 2 3 3 1 5 10 7 4 2 1 1 2 7 10 9 9 10 13 15 15 13 12 11 11 10 9 7 5 4 2 2 4 5 6 7 8 8 9 9 10 10 10 10 10 9 9 9 9 10 10 11 11 11 12 12 12 12 12 12 12 12 12 13 13 13 14 14 15 15 15 16 17 18 18 18 17 18 18 18 18 18 18 18
2 4 3 0 2 5 3 1 1 3 4 1 4 2 5 6 2 0 6 5 5 5 4 1 2 5 7 6 6 7 8 10 9 8 8 7 7 8 7 6 6 4 2 2 3 3 3 3 4 4 4 3 2 2 2 3 4 5 6 7 8 9 9 10 11 11 11 11 11 11 11 11 11 12 12 12 12 12 12 13 14 14 14 15 16 16 17 18 18 18 18 18 18 19 19 18 19
3 4 3 2 2 4 1 2 2 3 3 2 4 3 4 3 1 2 4 5 5 3 5 3 4 5 4 3 2 3 3 4 6 7 8 7 7 9 9 7 6 6 6 5 6 6 5 5 5 5 6 8 9 10 11 12 12 12 12 12 11 11 11 11 11 11 11 11 11 11 11 11 12 12 12 12 13 13 13 14 14 15 15 16 16 16 17 18 18 18 18 18 19 20 20 19 20
3 4 3 3 3 3 1 3 3 2 3 3 3 4 3 2 1 2 3 6 7 4 6 6 6 5 5 5 4 6 6 6 7 8 9 9 10 12 12 10 11 12 13 16 17 18 18 18 19 18 18 18 18 18 18 17 17 16 15 14 14 13 13 12 12 12 12 12 12 12 12 12 12 13 13 13 14 15 15 15 16 16 17 16 17 17 17 17 18 18 18 18 19 20 21 20 20
3 3 2 4 3 2 1 1 2 2 2 3 3 3 3 1 1 2 7 9 6 6 7 7 7 5 6 6 5 7 7 8 9 10 10 10 11 13 14 15 18 21 23 26 26 26 26 26 26 25 24 23 22 21 21 20 19 18 17 16 16 15 14 13 13 13 13 13 13 13 13 13 13 13 14 14 14 15 15 15 15 15 16 16 16 17 17 18 18 18 18 19 19 20 21 21 21
2 1 1 7 5 3 3 2 3 2 1 3 1 2 4 2 1 5 9 9 5 8 8 8 7 6 7 6 5 5 8 12 13 13 12 11 14 16 19 22 25 28 28 29 29 29 30 28 28 27 25 24 23 23 22 21 20 19 19 19 18 17 16 16 15 15 15 15 15 15 15 15 14 14 13 14 13 13 13 14 14 14 14 14 15 16 17 18 18 19 19 19 20 21 22 22 22
2 2 2 5 7 5 3 2 3 1 1 1 1 3 5 2 2 6 8 8 8 9 8 7 6 6 6 5 5 5 9 13 13 13 13 15 19 24 27 27 30 31 30 31 31 30 29 28 28 26 25 25 24 23 22 22 21 21 20 20 19 19 18 17 17 17 17 16 16 16 15 14 14 13 13 13 13 13 14 14 14 14 14 15 15 15 16 16 17 18 18 19 20 20 22 22 23
1 1 2 2 3 4 4 3 3 1 1 4 2 1 5 3 3 7 8 9 9 8 6 6 6 5 5 5 6 6 9 15 17 18 20 23 27 30 31 29 29 30 29 30 29 28 28 27 26 25 24 23 23 22 21 21 20 19 18 18 17 17 16 16 16 15 15 14 13 12 12 12 11 11 11 11 12 12 13 14 14 15 15 15 15 15 16 16 17 17 18 19 19 20 21 22 23
3 2 3 3 0 5 6 4 3 2 2 5 4 2 6 4 1 6 9 9 8 6 5 5 6 6 6 5 7 7 9 17 23 24 25 26 28 28 29 28 27 28 28 28 27 27 27 26 24 23 23 21 20 19 18 17 15 15 14 13 13 13 13 13 12 12 11 11 11 12 12 12 12 13 13 14 14 14 15 15 15 15 16 16 15 15 16 16 17 17 17 18 20 20 21 22 23
3 2 3 3 1 4 5 4 4 2 2 5 3 2 4 1 1 7 10 10 9 6 5 5 6 6 6 5 7 8 8 14 20 23 24 26 28 29 30 30 30 30 29 29 28 28 28 27 25 25 23 21 20 18 16 15 14 13 12 12 12 11 12 12 12 12 11 12 12 13 13 13 14 14 15 15 16 16 17 17 17 17 18 18 18 18 17 17 18 18 18 18 19 21 22 23 24
3 3 1 3 1 2 4 4 4 5 2 2 2 1 6 2 4 10 12 10 7 5 5 5 6 6 6 6 7 8 9 9 12 18 23 26 30 32 33 34 34 33 32 31 30 29 29 27 26 26 24 22 20 18 17 16 15 13 12 13 12 12 12 13 13 13 13 13 14 14 15 14 14 15 15 15 15 15 16 17 18 18 19 19 19 20 19 19 20 20 21 20 20 21 22 23 24
2 3 2 3 2 2 4 4 3 5 4 2 2 4 8 5 8 10 11 8 6 5 4 5 7 7 6 7 8 8 10 10 11 18 23 27 30 33 35 35 35 34 33 31 30 29 28 27 26 26 25 23 22 20 18 17 16 16 15 15 15 15 14 13 14 14 14 15 16 16 17 16 16 16 15 15 15 15 15 16 16 16 17 18 18 19 18 19 20 21 23 23 23 23 23 24 25
3 3 3 4 4 3 5 5 3 3 3 4 4 5 5 6 9 9 9 7 7 6 6 6 6 7 7 7 8 9 11 10 14 22 26 28 30 32 34 35 35 34 33 31 30 29 29 28 27 28 28 26 24 24 23 23 22 22 21 20 20 19 16 15 15 15 16 16 18 18 18 18 17 17 16 16 16 15 15 15 15 15 15 16 16 16 16 17 18 19 21 22 24 24 24 24 24
2 1 2 3 4 5 5 4 4 1 1 4 3 2 4 6 7 8 8 7 9 7 7 7 6 7 7 8 9 10 11 11 18 25 27 29 30 31 33 34 34 34 34 33 32 32 31 30 30 32 31 29 28 29 28 27 26 25 24 23 22 20 17 18 17 17 17 17 18 18 18 18 17 17 17 17 16 16 16 15 15 14 14 14 15 14 14 15 15 17 18 19 20 22 23 23 23
2 1 1 3 3 6 4 2 5 2 1 3 1 3 4 5 6 7 7 8 9 6 6 7 7 8 6 8 10 9 9 10 18 22 24 28 30 31 33 34 34 34 34 34 34 34 32 32 32 33 32 31 31 30 28 27 25 23 22 21 21 20 18 19 19 19 19 19 18 18 18 18 18 18 19 19 18 18 18 17 16 15 15 15 15 14 14 14 14 15 16 18 18 19 21 21 22
2 1 1 3 3 4 4 2 4 2 0 3 3 4 3 4 6 7 8 7 6 5 6 6 6 8 7 7 8 8 9 10 13 16 19 24 27 29 32 32 33 34 35 35 34 34 33 33 32 32 33 33 32 31 29 26 23 22 22 20 20 20 19 19 19 20 21 20 20 19 19 20 20 20 21 21 21 20 18 17 16 15 15 15 15 15 14 14 14 14 16 17 17 17 17 19 19
1 1 1 4 3 2 3 3 4 2 1 2 3 3 1 3 4 7 8 6 7 7 9 8 7 7 7 7 7 8 10 10 11 12 15 20 23 27 27 27 31 34 35 35 34 33 33 31 30 31 33 33 33 31 28 25 24 25 24 22 22 21 21 22 22 22 22 22 21 21 22 23 24 23 22 21 19 17 16 15 15 14 14 15 15 15 15 15 15 15 16 16 15 15 15 16 16
3 3 3 3 3 2 4 3 5 4 1 1 3 3 1 3 4 5 6 6 8 7 8 9 8 7 7 8 9 9 10 9 10 10 13 17 20 22 23 25 30 32 32 31 31 30 29 28 29 30 32 32 32 30 28 26 26 27 28 27 26 24 22 23 23 23 23 21 21 23 24 24 23 21 18 16 15 14 14 14 14 15 15 16 16 15 16 16 16 16 17 16 15 13 14 15 16
4 2 4 4 2 3 4 4 6 4 2 2 4 3 2 2 3 4 4 6 8 6 7 8 7 7 7 8 9 9 9 9 10 11 12 15 18 20 22 25 27 28 26 27 28 28 27 27 28 31 31 32 32 31 29 27 26 26 26 25 22 20 18 19 20 22 21 19 20 24 24 22 19 16 14 13 12 12 14 15 16 18 19 19 18 18 19 20 20 20 20 19 17 14 14 15 16
4 2 3 3 2 1 3 4 3 2 2 2 3 0 3 2 3 3 3 5 7 6 7 7 6 7 7 6 7 7 8 8 9 11 13 15 16 19 21 23 24 23 23 26 28 28 27 27 29 30 31 31 32 32 30 27 25 22 21 20 17 16 15 18 20 22 23 20 19 22 22 20 17 14 12 12 12 12 15 18 20 22 23 23 23 23 24 24 25 25 24 23 21 17 14 14 15
3 2 2 1 1 3 3 1 1 2 2 3 3 2 2 2 1 1 2 5 6 6 7 6 6 7 7 7 6 7 7 7 7 9 12 14 15 17 18 19 21 22 25 28 29 29 27 26 28 30 31 31 31 31 29 27 24 19 18 19 18 16 15 20 22 24 25 21 19 20 20 19 16 12 11 12 15 16 18 21 23 24 26 26 25 24 25 25 26 27 26 26 24 20 16 15 15
4 2 2 2 2 2 2 3 2 1 2 3 4 3 0 3 0 1 1 3 4 4 5 5 6 6 6 7 7 7 7 7 8 8 10 12 14 15 16 16 20 24 28 29 29 29 27 26 28 29 30 31 32 32 29 27 23 18 17 20 21 19 18 23 25 25 26 21 17 18 18 17 13 11 13 15 18 21 22 24 27 27 28 27 23 23 25 26 26 27 26 26 25 23 19 16 16
3 2 1 1 4 2 2 3 2 2 3 2 5 3 1 3 1 0 1 2 1 2 4 4 5 5 5 5 5 6 5 5 7 9 10 12 12 13 13 15 19 24 27 28 29 29 28 27 28 29 30 31 32 32 30 28 24 18 17 19 22 21 21 24 25 25 24 19 16 17 17 14 11 13 16 18 21 24 25 28 28 27 28 26 23 25 28 29 29 28 27 26 24 23 21 17 16
2 2 1 2 4 4 3 2 3 4 3 3 5 3 1 1 2 1 1 1 2 3 4 3 4 4 4 4 4 4 4 4 5 7 9 10 10 11 11 13 16 20 25 27 29 30 30 28 28 29 28 30 32 32 31 28 23 18 18 20 22 22 22 24 23 22 22 19 17 17 16 13 12 15 18 20 24 26 27 29 29 28 27 24 23 27 30 31 30 29 29 28 26 24 22 19 17
3 2 2 3 3 4 3 4 4 4 2 4 5 3 1 1 2 0 3 5 2 3 6 5 4 4 3 3 3 3 3 3 4 5 6 7 8 9 10 12 13 17 22 26 27 29 31 28 27 29 28 28 30 30 30 27 20 17 18 21 23 24 24 23 21 20 20 19 18 17 15 14 16 19 21 24 28 30 31 33 32 30 25 21 21 24 28 30 29 29 29 28 27 25 24 21 18
5 3 4 4 4 4 4 4 2 1 3 2 1 3 1 2 0 3 5 6 5 2 5 5 4 4 3 2 2 2 2 2 3 3 4 6 7 8 9 10 12 14 18 22 25 27 29 28 26 26 25 26 28 29 29 26 20 18 21 23 25 28 29 26 21 19 19 18 18 17 15 15 18 21 23 26 29 31 34 35 34 31 25 20 20 23 26 26 26 27 27 26 26 24 23 21 19
5 2 3 3 2 4 4 3 2 3 4 3 2 2 2 1 2 4 5 5 5 4 5 4 4 3 2 2 2 2 2 2 2 3 4 5 6 7 8 9 11 13 15 18 21 24 27 27 25 23 22 23 26 28 28 25 20 19 22 24 27 30 30 26 21 19 19 18 17 15 15 17 19 21 23 25 28 32 33 32 32 29 23 21 23 25 26 24 24 24 23 23 24 23 22 21 20
2 1 3 3 2 2 2 3 1 4 5 4 4 1 2 2 2 3 3 4 4 4 4 4 3 2 2 2 2 1 1 2 2 2 3 4 5 6 7 9 10 11 13 15 18 21 25 27 23 20 20 23 26 28 27 23 18 18 22 25 28 29 26 22 20 18 19 18 16 15 16 19 20 22 24 28 31 34 33 31 29 27 23 23 25 26 27 26 24 22 20 21 21 22 22 21 21
1 1 3 3 1 3 1 2 3 2 3 3 3 1 2 1 2 2 2 3 5 5 5 4 4 3 2 1 1 1 1 1 0 0 2 3 5 7 8 9 10 11 11 14 17 19 23 23 18 16 19 23 26 25 24 20 17 18 23 25 27 27 24 21 19 19 19 17 15 16 18 20 23 25 28 33 35 35 33 31 29 27 26 26 26 28 29 27 25 23 22 21 21 21 21 22 22
1 2 2 2 2 5 2 2 1 3 2 2 1 1 1 1 1 2 2 3 4 4 4 5 4 3 3 2 2 2 2 2 2 1 1 3 5 7 8 8 9 11 10 14 17 19 22 20 15 15 18 21 21 21 19 17 15 19 22 22 23 25 23 20 20 21 19 16 15 18 20 22 25 28 31 34 34 32 31 30 30 29 28 29 30 31 29 27 25 24 23 22 22 22 21 22 21
3 2 1 2 1 3 3 1 3 4 1 3 2 2 3 2 1 2 2 1 2 3 3 3 3 4 4 4 3 3 3 3 3 3 2 4 6 7 8 8 8 10 11 16 19 20 20 16 12 15 19 20 20 19 17 14 16 21 21 19 21 23 21 19 20 21 19 17 18 20 22 25 28 30 32 31 30 28 28 28 27 27 28 29 31 30 28 27 26 24 23 22 22 21 21 21 20
4 2 1 1 2 1 2 2 2 3 2 4 4 3 2 1 1 2 4 3 1 1 1 2 3 4 4 5 5 5 4 3 4 3 3 5 7 7 7 7 8 10 12 17 18 18 16 13 13 17 19 19 19 18 15 14 20 22 19 19 21 21 20 19 20 21 20 19 21 23 25 29 32 31 30 28 27 26 26 27 25 25 26 27 28 28 27 26 24 22 22 22 21 20 21 23 21
4 3 3 3 3 2 0 1 1 1 2 3 4 5 2 1 1 4 5 2 2 1 2 2 3 4 4 4 4 5 5 5 5 2 4 6 7 6 6 6 7 9 12 15 16 18 17 14 15 18 18 18 18 17 14 17 21 21 18 20 22 21 20 19 20 21 21 19 22 25 28 30 30 28 27 26 25 26 26 25 24 24 26 26 26 26 25 24 23 23 22 22 22 21 23 24 23
4 4 5 4 2 1 1 1 2 2 0 1 2 5 4 1 1 3 2 1 3 2 3 3 2 3 4 4 5 5 5 7 6 1 6 6 5 4 4 5 6 10 14 16 19 20 17 13 15 18 18 19 19 17 15 18 22 21 20 23 23 22 21 20 21 22 20 20 22 25 27 28 26 25 25 25 25 26 25 25 25 25 25 26 26 25 24 23 23 23 22 23 24 23 24 25 24
2 3 2 1 1 2 3 2 2 2 1 3 2 4 5 1 1 1 1 3 3 4 5 4 5 6 6 6 6 7 8 8 4 5 6 4 3 3 4 6 8 13 16 18 20 19 15 14 17 18 18 20 19 17 17 21 24 23 23 24 24 23 22 22 22 22 20 20 21 25 26 26 26 25 25 25 26 26 25 25 26 26 26 27 26 25 24 22 22 23 24 24 24 24 25 25 25
Wind_Direction
351 343 338 341 324 179 64 52 120 324 86 230 259 204 254 209 130 214 231 211 207 232 196 172 134 143 118 148 186 186 168 153 173 123 178 281 158 163 147 146 156 158 159 155 156 156 154 151 138 125 112 109 102 98 94 90 89 85 84 78 75 71 68 64 63 61 58 58 53 54 52 50 47 47 47 43 43 41 41 41 42 37 32 32 31 32 30 30 30 30 28 30 31 27 26 23 19
350 342 333 74 48 146 200 58 126 311 50 253 264 182 262 343 214 233 214 193 209 269 3 87 103 83 82 93 133 144 228 202 204 145 243 65 155 170 155 152 161 161 163 162 164 164 158 148 130 123 113 111 104 102 99 95 94 89 87 81 79 74 71 66 64 62 59 59 55 56 53 51 49 48 46 42 43 41 41 38 39 36 32 32 31 31 30 29 28 28 27 28 29 26 24 22 20
350 345 332 177 57 57 99 45 123 170 195 242 266 232 222 225 229 255 232 207 260 277 13 107 109 76 73 18 80 116 248 281 216 216 238 160 161 174 162 158 164 166 168 167 168 168 156 137 125 124 116 116 111 110 106 101 99 93 91 84 83 77 73 69 65 64 60 60 58 58 56 53 51 49 46 43 42 39 40 37 36 33 31 31 30 30 28 28 27 27 26 26 28 26 25 23 20
8 16 349 176 88 34 65 34 127 139 204 226 266 267 208 215 232 254 262 244 290 297 167 140 142 196 119 246 209 11 257 284 209 187 176 180 171 168 160 160 166 169 172 168 166 164 147 132 128 128 123 124 119 116 111 107 103 96 92 84 83 77 73 69 66 64 61 61 59 59 57 55 52 50 47 43 43 37 36 35 34 31 30 30 29 28 26 26 25 25 25 25 27 26 25 22 20
51 44 37 128 105 81 95 59 94 145 217 180 208 262 223 224 227 229 266 270 260 227 178 138 158 275 130 208 181 186 227 338 209 198 193 180 167 162 159 161 168 170 170 163 161 156 140 134 136 134 132 130 124 120 114 111 105 99 93 84 81 75 72 68 65 63 61 60 59 59 58 56 52 49 45 42 41 37 35 35 33 30 29 28 27 26 24 24 23 23 23 22 23 23 24 21 22
101 62 52 79 89 115 125 202 183 223 229 171 196 246 223 220 207 180 163 263 265 244 177 131 177 148 220 252 205 203 198 100 168 194 197 173 164 163 160 162 167 168 166 159 156 149 137 138 142 139 136 131 126 123 118 115 108 101 94 86 81 75 72 68 65 62 60 59 57 58 57 57 52 49 46 43 42 39 36 35 33 30 31 28 25 24 21 22 20 21 20 20 20 19 21 19 20
82 96 41 69 75 36 121 205 205 237 245 179 195 231 229 230 180 140 143 180 225 256 17 224 183 108 235 298 250 228 194 147 143 176 185 171 165 164 162 162 166 165 163 156 152 145 136 140 145 141 137 132 129 127 123 119 112 106 98 92 84 77 73 68 66 62 60 58 56 55 55 55 52 50 47 46 44 41 39 37 35 33 32 28 24 23 21 20 18 18 17 17 15 15 18 16 17
49 73 348 87 126 8 103 226 239 218 246 222 227 227 228 218 168 144 168 183 172 211 101 257 232 138 257 3 248 236 185 173 154 167 172 170 168 165 164 164 165 164 162 154 150 145 137 142 148 143 140 138 136 134 129 124 116 110 104 99 91 83 76 69 66 62 60 57 55 53 52 52 50 49 47 46 43 41 41 40 38 35 33 28 26 24 21 20 18 17 15 14 12 12 13 11 11
42 45 162 81 166 340 23 282 272 237 256 261 254 236 229 188 169 151 168 217 286 169 181 230 182 192 277 9 252 279 198 191 176 165 169 173 171 167 167 166 166 164 161 155 151 147 141 143 153 149 148 147 144 142 135 129 121 115 105 97 91 85 79 71 66 62 59 56 55 52 51 49 47 47 45 43 41 40 41 41 39 35 33 28 27 25 22 21 19 17 14 12 10 9 8 7 6
40 28 146 84 118 274 310 280 258 263 250 252 261 235 206 173 169 167 165 204 218 154 200 212 153 216 264 269 252 302 191 193 186 173 170 174 173 170 169 169 169 164 160 157 153 152 146 146 157 158 156 155 152 150 145 139 129 119 105 94 86 76 73 68 61 57 56 54 53 50 48 48 45 44 42 40 40 39 37 38 37 35 33 29 27 25 23 20 19 17 12 10 8 8 4 3 1
41 359 99 94 65 250 262 255 261 267 265 299 283 236 190 161 149 168 172 207 196 143 174 156 171 205 145 275 253 178 177 187 187 177 169 173 176 173 171 170 172 169 163 158 156 157 152 151 158 163 164 163 161 158 156 153 142 128 109 93 79 68 63 56 47 43 44 44 45 43 41 42 43 42 40 37 36 35 35 34 33 32 31 29 27 25 23 20 17 14 11 9 6 7 3 1 0
86 333 62 100 181 217 231 250 270 280 294 306 272 248 159 148 143 186 187 197 179 142 205 186 184 153 136 283 257 208 196 187 184 174 170 172 178 176 173 172 174 176 169 162 161 162 161 158 161 166 169 171 173 169 168 170 161 143 120 93 67 51 43 36 28 26 29 32 32 32 32 33 34 36 35 33 31 30 32 32 29 27 26 27 26 24 23 20 17 13 11 8 5 5 360 358 0
128 150 88 149 199 175 186 230 274 304 305 258 229 255 135 150 182 204 167 161 157 146 237 204 161 101 179 257 274 281 211 184 178 170 170 171 177 177 176 176 176 180 177 171 167 168 170 167 165 169 172 175 181 182 180 186 189 180 156 125 18 2 6 10 8 8 12 17 18 19 22 23 24 25 25 25 24 23 25 28 27 22 21 22 21 21 20 19 18 15 13 10 6 4 360 358 0
138 152 116 171 299 123 174 253 282 284 275 260 250 169 159 177 209 190 142 159 204 177 236 191 153 130 217 262 303 311 164 172 172 169 170 171 176 178 179 181 180 183 183 180 175 176 178 176 172 173 178 180 186 191 191 196 205 216 235 276 311 330 342 350 351 352 352 356 2 6 11 14 15 13 14 15 15 16 16 20 23 19 15 16 15 15 15 15 15 16 16 12 9 8 4 349 337
136 141 92 125 39 46 205 246 227 206 254 251 109 152 181 255 144 145 166 175 235 207 120 163 166 183 202 178 212 294 157 165 168 168 168 171 176 179 183 185 186 187 188 187 184 184 184 185 182 180 184 187 192 198 202 206 214 230 255 284 298 312 322 330 333 335 335 339 346 352 358 3 5 4 4 5 4 6 8 11 15 15 11 9 9 8 9 10 11 12 12 12 11 0 343 326 319
118 111 67 115 208 253 216 213 132 201 260 230 263 134 169 267 148 164 237 172 268 295 64 190 192 207 173 142 173 311 156 161 165 167 168 170 175 180 186 189 191 192 192 194 192 192 191 192 193 191 191 194 200 207 215 222 232 250 269 285 295 304 310 316 319 323 327 330 333 337 342 349 353 354 354 355 355 356 360 2 4 7 6 3 2 359 360 3 5 4 3 5 359 343 335 333 329
68 87 77 209 203 209 201 194 177 199 267 268 275 195 160 279 265 212 274 85 109 11 326 234 220 116 164 169 322 200 155 160 162 164 164 167 174 178 186 192 195 197 198 199 199 199 199 200 201 203 203 205 211 219 231 242 253 267 278 288 297 302 306 310 312 315 319 322 323 325 328 335 341 343 345 346 348 349 352 354 355 358 357 356 354 352 352 353 355 352 350 351 344 337 338 339 338
51 90 132 214 195 201 188 184 197 193 300 267 209 213 182 249 249 219 334 13 12 329 300 292 282 292 133 357 82 146 154 159 162 163 162 165 173 178 186 193 196 200 201 202 204 205 207 209 210 213 216 220 227 236 246 257 266 275 284 290 295 299 302 304 306 308 311 314 315 317 320 324 329 332 337 338 340 343 344 347 347 348 348 348 347 348 348 346 345 341 339 339 335 333 334 334 336
88 115 160 228 198 213 199 178 197 199 182 181 225 224 197 219 185 143 230 310 2 266 282 321 285 262 142 101 134 149 157 162 166 167 166 171 178 182 187 193 198 202 203 205 206 209 212 215 218 222 226 233 241 250 257 266 273 279 284 289 294 296 299 300 301 303 304 307 309 311 313 316 319 323 328 331 334 336 338 339 339 340 340 342 342 343 344 342 340 336 334 333 330 329 329 330 331
145 129 216 243 211 229 225 190 201 201 172 151 225 138 185 246 225 128 209 266 337 216 246 234 252 249 204 144 148 156 161 166 172 174 175 179 184 186 188 193 198 202 204 207 210 213 217 220 225 230 236 242 250 258 264 271 277 281 285 289 294 296 299 299 300 301 302 305 306 308 309 311 313 316 320 324 327 329 331 333 332 332 333 336 337 337 338 338 337 333 332 331 328 327 327 327 327
138 150 199 227 195 237 231 204 212 201 169 139 135 101 278 262 213 145 161 232 287 237 229 210 228 238 197 167 167 164 166 173 179 182 184 187 190 191 192 195 201 204 205 209 213 218 223 227 232 238 245 250 256 264 269 275 279 283 287 290 293 296 298 300 303 305 307 309 310 311 310 311 311 312 314 318 322 323 325 328 328 327 328 332 332 331 334 334 334 331 330 330 329 329 327 326 326
144 203 197 186 163 246 274 213 208 170 110 89 107 150 261 266 176 190 164 210 254 228 221 214 226 235 181 171 172 169 173 179 185 190 192 193 193 192 194 197 200 204 207 212 219 225 230 235 239 244 250 256 262 268 272 277 281 285 289 292 296 299 304 307 311 313 315 317 318 318 317 315 314 313 313 315 318 319 322 324 324 324 324 328 328 327 330 332 332 330 329 329 329 329 328 326 324
205 275 289 205 191 226 294 285 223 153 110 123 157 216 109 74 272 198 180 223 232 215 189 190 236 260 175 162 160 169 180 185 192 196 196 194 192 189 192 192 188 184 190 207 226 238 245 249 253 256 261 266 270 276 280 284 288 292 297 302 306 310 315 318 320 322 323 324 324 323 322 320 317 315 315 316 317 318 320 322 322 322 323 325 325 324 326 329 329 329 328 327 327 326 325 324 323
136 266 310 269 200 210 229 205 218 158 153 191 155 119 139 179 243 106 224 242 249 272 308 176 235 142 147 152 162 178 184 189 195 196 194 193 192 188 187 181 170 164 157 173 267 282 283 277 273 273 273 276 279 283 290 296 300 305 312 319 325 328 330 330 329 330 327 325 323 320 320 319 319 317 316 317 316 317 319 321 321 321 322 322 322 322 323 325 325 326 325 325 324 323 322 322 320
123 224 273 47 214 246 256 191 196 193 210 225 108 150 222 206 170 235 260 283 305 301 335 337 136 118 134 151 175 178 178 186 183 180 180 179 174 163 157 160 157 143 104 40 360 340 319 292 276 272 269 273 285 323 360 14 18 21 16 12 8 360 354 347 342 338 332 328 324 322 321 320 320 319 318 318 316 316 316 316 317 317 317 318 318 319 321 321 322 322 322 322 321 321 320 320 319
200 195 225 202 252 289 277 184 216 235 233 155 160 246 266 218 170 271 282 351 318 304 26 24 100 97 91 105 130 111 114 152 151 154 152 143 140 129 122 126 117 93 77 71 71 76 81 87 90 92 91 86 83 78 71 66 60 53 46 39 31 22 14 6 360 353 345 341 335 331 328 326 326 324 323 321 317 315 315 314 314 314 313 314 314 314 316 316 317 318 318 319 318 318 319 319 319
184 181 216 223 278 305 181 193 244 260 235 184 200 265 289 252 248 268 307 347 329 11 38 25 68 68 51 56 59 74 84 110 132 137 128 123 124 116 109 107 101 98 98 94 90 90 89 88 86 85 84 82 80 77 73 69 64 58 52 45 38 31 23 16 10 4 357 352 347 343 339 336 334 331 328 325 323 322 321 320 318 317 316 315 313 311 311 311 312 314 315 316 316 316 316 317 318
151 166 240 277 307 302 37 59 289 305 214 185 174 244 277 326 56 284 311 325 340 35 29 20 47 48 48 56 57 67 75 96 113 113 111 115 117 112 107 109 109 105 100 97 94 92 89 86 85 82 81 80 78 76 72 68 64 59 53 47 42 36 29 23 18 14 10 5 1 357 352 347 342 339 336 334 333 332 331 331 330 328 325 321 315 311 309 309 310 310 312 313 313 313 313 314 315
172 124 308 296 349 12 351 8 289 317 163 188 150 303 302 347 25 317 325 327 354 44 28 19 37 41 48 52 55 49 56 84 95 93 101 113 116 113 109 110 110 103 98 97 94 89 85 82 81 78 76 74 71 69 66 63 59 54 51 46 42 38 34 31 28 27 23 20 17 14 11 7 2 358 354 351 348 347 347 347 347 346 342 336 328 322 316 314 313 312 313 312 311 311 311 312 313
249 55 60 309 358 353 328 7 294 295 121 292 344 309 298 296 356 341 349 358 17 35 21 18 33 41 49 47 54 44 46 68 79 84 100 111 112 111 107 105 103 100 97 95 91 86 82 80 78 76 73 70 67 64 61 58 53 50 47 44 41 38 35 32 30 29 24 22 19 18 17 15 12 6 359 354 351 349 349 350 351 351 348 345 343 337 331 328 326 324 323 319 316 314 311 312 312
291 10 45 7 4 294 305 357 342 63 49 353 45 243 274 271 26 9 359 7 27 34 12 23 43 48 56 54 63 58 51 66 75 83 95 103 105 105 101 98 96 96 94 90 87 86 83 80 80 78 75 74 70 66 62 60 56 53 49 45 43 38 35 31 27 23 18 15 10 8 6 3 359 351 344 338 336 335 335 337 341 343 341 340 341 339 337 336 334 334 334 329 326 324 319 316 315
20 349 310 350 84 277 314 353 30 62 346 12 63 218 282 277 21 12 4 4 22 40 23 35 60 67 73 70 75 76 68 73 76 81 89 94 96 94 92 92 91 90 89 87 86 85 81 77 77 76 73 72 70 68 65 63 59 56 51 45 40 33 28 24 18 11 4 359 354 350 346 343 338 333 328 322 320 318 318 320 324 329 328 327 328 329 330 331 331 331 334 333 329 328 327 323 321
2 43 268 293 318 302 325 355 20 28 336 2 37 217 282 296 37 357 6 7 8 33 41 51 70 76 81 81 83 86 81 75 71 72 78 83 85 85 86 86 86 86 85 84 82 79 75 72 71 68 66 64 63 62 59 56 51 47 42 34 27 20 17 11 5 358 351 348 345 342 338 335 331 327 324 320 317 313 311 311 311 313 315 316 318 318 319 320 321 320 324 328 325 324 325 324 325
330 28 300 267 274 298 313 325 353 22 41 327 3 235 253 282 13 355 3 5 1 19 34 67 85 81 85 87 87 86 82 76 61 62 71 78 81 82 83 83 83 83 81 79 76 73 70 67 64 61 59 56 54 51 47 43 38 33 28 24 16 10 8 1 354 346 343 343 340 339 337 334 331 328 326 324 322 317 313 311 308 307 307 309 310 310 311 312 314 314 315 317 317 317 318 320 323
285 305 304 299 297 255 275 278 316 19 33 273 319 282 266 318 2 357 358 357 9 23 40 83 88 83 88 85 85 83 76 69 58 64 73 78 79 79 79 80 79 76 74 73 71 68 65 61 58 54 49 46 42 39 34 27 22 17 12 8 1 357 355 348 343 337 337 338 337 339 336 333 332 330 328 328 327 324 320 317 313 310 308 308 306 306 306 307 311 312 313 314 314 313 314 316 318
216 249 223 269 284 264 256 260 280 19 13 270 259 267 290 350 355 354 352 358 33 44 62 82 82 83 88 82 84 80 74 69 66 71 75 76 76 75 75 74 73 71 68 66 63 60 56 53 50 46 40 35 32 28 23 18 12 9 6 2 358 358 353 345 341 336 335 336 337 338 335 335 335 333 333 333 334 332 330 326 323 320 319 318 316 315 313 313 315 316 316 317 317 317 316 317 319
147 166 199 258 264 279 271 273 300 20 204 268 245 275 351 9 351 353 352 12 38 40 62 76 77 81 83 85 84 78 75 76 73 72 72 72 72 71 71 69 68 65 60 58 56 52 49 46 43 40 34 29 27 24 21 19 15 11 8 5 2 1 356 350 348 344 342 341 340 338 337 339 339 340 340 340 340 340 337 335 333 332 332 333 333 331 329 326 327 327 326 322 322 321 318 319 321
66 141 272 306 246 264 266 258 306 325 181 278 359 31 26 29 8 4 8 31 34 24 60 75 80 82 79 83 81 79 80 75 71 67 65 66 66 66 65 63 62 58 54 52 50 47 43 40 38 35 30 26 24 22 19 17 15 11 6 3 359 356 355 354 354 352 350 349 347 343 342 342 341 343 344 343 343 343 343 341 339 340 339 340 339 337 337 337 338 339 340 334 328 324 318 318 324
53 118 11 311 260 278 293 303 322 351 248 279 357 19 30 33 26 30 26 40 41 28 57 65 76 82 72 73 76 79 80 71 66 61 59 61 61 61 60 58 57 54 51 48 45 42 39 37 34 30 27 24 21 18 15 12 9 6 3 1 357 355 355 353 351 349 348 350 350 346 344 343 342 341 340 341 342 344 348 348 346 346 345 346 344 341 341 343 344 346 349 345 335 327 321 320 325
211 190 232 279 294 329 290 309 326 330 274 273 329 344 36 13 25 47 34 41 53 46 58 56 56 69 64 63 65 71 75 72 69 62 58 59 58 58 56 55 54 51 48 45 42 41 39 37 33 28 25 22 20 16 13 9 4 1 359 358 355 353 351 348 347 347 348 349 345 341 340 339 338 337 337 340 344 350 355 355 354 351 351 354 354 353 351 351 352 352 354 354 344 332 323 319 320
289 208 199 250 304 279 239 291 321 326 8 359 337 324 33 17 20 46 29 40 51 44 57 56 47 54 59 62 58 60 67 70 71 65 59 59 59 58 56 55 53 50 47 44 43 42 39 37 31 26 22 19 18 15 11 6 2 358 356 355 354 353 353 353 353 352 353 351 342 337 337 337 339 341 345 350 355 4 5 359 358 356 354 358 1 359 356 353 351 353 354 353 349 338 324 316 313
316 245 211 227 254 268 276 332 343 360 2 356 21 351 318 7 39 38 17 44 50 38 49 53 44 45 53 61 61 61 64 66 68 68 64 63 63 61 57 54 52 50 47 43 42 40 38 34 27 22 20 17 14 12 9 5 2 1 1 2 1 1 1 1 359 352 349 346 337 335 340 345 349 354 3 7 5 9 3 355 353 352 349 351 353 348 344 342 339 341 342 341 341 337 327 318 311
329 267 199 201 176 248 307 349 1 4 294 313 50 100 260 327 41 19 16 62 58 45 45 46 41 43 49 55 60 66 65 65 66 66 65 64 63 61 57 53 51 49 44 40 38 35 34 30 22 20 18 15 12 9 7 4 4 4 4 8 7 4 0 355 352 347 343 340 333 336 343 351 356 3 10 6 358 355 352 349 347 345 342 340 340 336 334 335 332 330 329 329 329 328 326 319 310
295 239 145 184 290 279 273 337 202 241 283 326 22 113 240 300 25 357 20 73 64 49 43 40 44 47 52 55 57 63 64 66 67 66 64 64 65 64 61 57 51 47 41 37 34 31 29 25 19 17 15 13 10 7 5 5 5 4 2 4 3 1 355 348 345 343 342 340 334 338 344 348 354 1 357 350 346 343 344 344 342 341 339 337 336 332 330 330 328 326 324 324 324 321 318 310 303
271 209 170 244 298 267 199 147 182 289 10 328 339 51 260 284 323 33 19 80 71 57 53 50 54 51 57 64 64 67 66 66 69 70 68 67 69 68 65 59 49 42 38 34 32 29 26 22 17 14 11 9 7 5 4 3 3 2 358 359 358 355 350 345 343 341 342 340 335 338 342 344 348 348 338 336 338 338 338 340 341 341 339 338 335 330 328 329 329 327 325 325 323 319 314 305 296
271 160 149 63 60 57 96 104 120 44 34 291 304 6 50 282 278 149 35 81 91 83 77 64 61 55 60 67 69 75 72 68 70 73 73 72 72 70 64 56 45 38 34 32 30 27 23 19 14 11 8 5 3 3 2 360 360 360 357 356 355 351 347 343 341 340 341 340 334 336 339 340 341 339 336 337 338 338 338 339 341 340 338 336 331 328 328 330 330 329 327 325 323 320 314 305 295
313 72 356 30 48 40 46 68 99 58 6 269 279 314 80 323 285 170 69 328 237 149 122 108 84 64 61 65 66 74 72 72 74 75 79 78 75 71 62 54 44 35 31 28 25 22 20 16 10 8 5 0 358 358 357 356 356 355 353 353 352 349 346 343 340 339 339 337 333 334 336 335 334 335 336 337 338 338 337 338 338 337 334 330 326 326 328 329 330 329 328 325 323 321 316 308 298
1 39 354 358 2 17 23 356 44 62 316 266 275 297 132 237 278 307 346 330 297 159 143 134 111 84 67 67 66 74 75 78 83 79 79 76 68 61 55 49 40 32 27 24 21 18 16 13 6 3 0 356 354 353 353 353 352 351 349 349 349 347 345 342 338 334 335 334 332 331 333 333 332 334 334 334 335 335 334 335 334 333 331 326 322 322 324 326 328 327 325 324 321 319 315 311 301
17 27 31 25 356 8 12 340 9 79 255 245 299 343 308 207 260 348 342 346 354 78 119 126 125 113 88 77 75 82 81 71 73 71 64 61 57 52 48 43 36 32 26 21 18 14 12 9 3 359 356 352 350 349 349 349 348 345 344 345 345 343 342 340 336 331 331 331 329 329 330 332 332 333 333 333 333 332 332 332 331 330 328 322 318 318 320 322 322 321 321 319 317 314 311 308 300
8 26 60 52 39 21 339 302 338 305 275 268 306 345 297 260 41 7 352 1 12 48 77 92 108 108 98 94 92 91 80 62 56 55 55 57 58 57 52 44 37 31 25 18 14 9 7 5 360 355 352 349 348 347 346 345 343 339 338 339 339 339 339 336 332 328 327 327 326 325 326 329 331 331 331 331 329 329 329 328 327 326 323 318 316 318 320 319 316 314 313 311 311 308 305 302 298
341 189 115 88 99 68 290 253 282 297 291 297 308 306 234 279 21 18 2 13 27 53 67 75 83 89 100 89 86 84 47 42 45 50 66 69 69 69 57 46 38 29 22 15 9 5 2 0 357 353 351 348 346 345 343 343 339 335 335 335 335 336 335 330 327 324 324 325 323 323 325 327 329 328 328 328 326 326 326 324 324 324 320 317 316 318 319 317 315 311 305 302 302 302 300 297 296
288 165 80 38 153 148 216 210 199 265 318 312 293 222 187 139 68 33 35 38 38 47 52 58 58 46 51 34 5 359 339 324 302 33 91 88 83 77 60 49 37 25 18 10 4 1 358 356 355 352 347 343 342 341 339 337 335 332 333 332 332 334 334 328 325 324 324 322 320 321 324 326 327 327 325 325 324 324 324 323 322 321 319 317 316 318 318 316 313 308 303 300 297 298 297 294 294
339 47 32 294 195 137 116 301 316 57 38 300 297 303 309 63 72 345 10 38 42 42 39 51 52 31 32 18 331 306 278 264 261 240 156 110 97 80 61 53 37 23 15 6 1 357 354 354 353 347 344 342 340 337 334 333 334 334 332 329 329 333 332 328 326 327 325 320 319 321 323 325 326 325 324 323 322 322 322 321 320 318 318 318 317 318 317 314 312 307 302 299 296 296 294 290 290
58 34 260 238 71 91 100 6 352 31 19 285 344 332 302 329 327 320 326 324 39 42 39 52 52 41 37 18 344 308 276 258 252 229 170 118 100 79 62 52 33 20 10 1 357 353 353 354 349 345 345 344 340 337 334 333 335 334 329 326 329 331 329 325 325 327 324 317 317 320 322 323 323 323 322 321 320 319 318 318 316 315 315 315 315 315 313 312 310 304 300 296 294 294 291 287 286
75 75 252 86 62 4 30 37 355 6 326 294 317 311 289 265 235 302 288 242 153 41 47 61 40 34 25 7 357 334 305 274 255 228 161 115 97 80 60 39 18 11 3 357 355 353 354 353 343 343 344 341 338 335 332 329 331 332 327 326 329 329 327 323 322 325 322 314 314 318 319 319 320 320 320 319 318 316 315 315 313 310 310 310 310 310 309 308 305 300 296 294 292 292 289 287 285
27 35 2 34 114 168 347 31 110 54 314 301 319 325 314 215 252 299 290 240 136 62 9 42 32 17 359 347 348 334 322 310 295 244 130 103 93 78 45 23 10 5 358 356 356 355 353 347 340 342 342 338 337 335 331 329 332 332 328 326 327 326 325 322 320 322 319 312 312 316 317 318 318 318 317 315 314 312 312 312 309 307 308 307 306 306 304 302 300 296 293 292 291 291 288 287 286
7 29 12 354 343 45 58 36 95 103 275 275 326 312 287 230 326 301 293 88 100 62 19 19 4 348 342 336 331 322 318 318 319 66 104 93 90 70 27 13 4 359 357 356 356 354 350 343 341 342 341 338 336 334 331 331 333 331 327 326 326 325 324 321 319 319 317 313 313 315 316 317 316 314 314 313 311 310 309 308 307 305 304 303 302 300 299 297 295 292 290 289 290 289 286 285 286
92 68 27 343 341 65 67 349 342 71 159 187 181 292 281 269 332 286 94 71 61 46 28 7 344 339 338 335 332 326 323 328 3 82 92 82 71 39 13 4 357 355 356 356 354 352 346 342 342 340 339 337 335 332 331 331 332 329 327 326 325 324 323 321 320 318 315 314 314 315 316 316 314 313 312 311 309 307 307 306 305 303 301 301 298 296 293 291 288 287 287 287 287 286 285 283 283